Bei Facebook empfehlenBei Twitter postenGoogle plusPinterest

Das Wetter im Erzgebirge am 19.01.2017

Wetter und Klima am 19.01.2017 Holzhau im Erzgebirge (630m ü.NN)
Letzte gemessene Temperatur und Uhrzeit der Messung23:45:00 Uhr-8.70 °C
Temperatur (Maximum / Höchstwert) und Uhrzeit der Messung14:15:00 Uhr2.20 °C
Temperatur (Minimum / Tiefstwert) und Uhrzeit der Messung06:15:00-15.40 °C
Errechneter Absolutwert der Temperaturschwankungen zwischen Tmin und Tmax des Tages17.60 K
Errechnete Tagesmitteltemperatur-9.80625 °C
Gesamt - Niederschlag des Tages (in flüssiger Form)0.00 Liter / m²
Luftdruck (Maximum / Höchstwert) und Zeitpunkt der Messung11:30:00 Uhr1030.80 hPa
Luftdruck (Minimum / Tiefstwert) und Zeitpunkt der Messung18:15:00 Uhr1029.40 hPa
Errechneter Absolutwert der Luftdruckschwankungen des Tages1.40 hPa
Höchste gemessene Windgeschwindigkeit und Uhrzeit der Messung23:45:00 Uhr0.00 km/h
Errechnete Windhäufigkeit in Relation zu den Messwerten des Tages0.00000 %
Niedrigste Windkühle (Windchill) und Zeitpunkt der Messung06:15:00 Uhr-15.40 °C
Taupunkt (Maximum / Höchstwert) und Uhrzeit der Messung13:30:00 Uhr-2.50 °C
Taupunkt (Minimum / Tiefstwert) und Uhrzeit der Messung06:15:00-17.40 °C
Anzahl der automatisch eingelesenen Messwerte 96

Detaillierte Wetter- und Klima- Messwerte für den 19.01.2017 in Holzhau im Erzgebirge (630m ü.NN)
ZeitTemperaturLuftdruckRel. LuftfeuchteWindWindrichtungWindchillTaupunktNiederschlag l/m²
23:45:00-8.70 °C1029.80 hPa88.00 %-10.50 °C 
23:30:00-9.30 °C1029.90 hPa87.00 %-11.30 °C 
23:15:00-9.80 °C1029.90 hPa87.00 %-11.80 °C 
23:00:00-10.10 °C1030.00 hPa87.00 %-12.10 °C 
22:45:00-10.10 °C1030.10 hPa87.00 %-12.10 °C 
22:30:00-10.40 °C1030.20 hPa87.00 %-12.40 °C 
22:15:00-11.10 °C1030.30 hPa86.00 %-13.20 °C 
22:00:00-10.70 °C1030.10 hPa86.00 %-12.80 °C 
21:45:00-10.40 °C1030.00 hPa86.00 %-12.50 °C 
21:30:00-10.40 °C1030.10 hPa87.00 %-12.40 °C 
21:15:00-10.40 °C1030.00 hPa87.00 %-12.40 °C 
21:00:00-10.50 °C1030.00 hPa88.00 %-12.30 °C 
20:45:00-10.70 °C1030.20 hPa86.00 %-12.80 °C 
20:30:00-10.40 °C1030.20 hPa87.00 %-12.40 °C 
20:15:00-10.50 °C1029.90 hPa86.00 %-12.60 °C 
20:00:00-10.10 °C1029.90 hPa87.00 %-12.10 °C 
19:45:00-10.10 °C1029.70 hPa87.00 %-12.10 °C 
19:30:00-9.90 °C1029.60 hPa87.00 %-11.90 °C 
19:15:00-9.80 °C1029.80 hPa86.00 %-11.90 °C 
19:00:00-9.50 °C1029.70 hPa85.00 %-11.80 °C 
18:45:00-9.00 °C1029.60 hPa86.00 %-11.10 °C 
18:30:00-9.10 °C1029.50 hPa85.00 %-11.40 °C 
18:15:00-8.90 °C1029.40 hPa85.00 %-11.20 °C 
18:00:00-8.60 °C1029.40 hPa84.00 %-11.10 °C 
17:45:00-8.20 °C1029.50 hPa85.00 %-10.50 °C 
17:30:00-8.20 °C1029.50 hPa84.00 %-10.70 °C 
17:15:00-8.00 °C1029.60 hPa82.00 %-10.80 °C 
17:00:00-7.60 °C1029.80 hPa80.00 %-10.80 °C 
16:45:00-7.00 °C1029.50 hPa79.00 %-10.40 °C 
16:30:00-6.10 °C1029.60 hPa77.00 %-9.90 °C 
16:15:00-4.70 °C1029.50 hPa75.00 %-8.90 °C 
16:00:00-3.40 °C1029.70 hPa73.00 %-8.00 °C 
15:45:00-1.90 °C1029.70 hPa71.00 %-7.00 °C 
15:30:00-0.10 °C1029.90 hPa70.00 %-5.50 °C 
15:15:000.60 °C1029.90 hPa69.00 %-4.40 °C 
15:00:001.20 °C1030.00 hPa69.00 %-3.80 °C 
14:45:001.30 °C1030.00 hPa69.00 %-3.70 °C 
14:30:001.80 °C1029.90 hPa67.00 %-3.70 °C 
14:15:002.20 °C1030.20 hPa68.00 %-3.10 °C 
14:00:002.00 °C1030.20 hPa68.00 %-3.30 °C 
13:45:002.10 °C1030.00 hPa69.00 %-3.00 °C 
13:30:001.60 °C1030.10 hPa74.00 %-2.50 °C 
13:15:000.90 °C1030.40 hPa73.00 %-3.40 °C 
13:00:000.40 °C1030.20 hPa75.00 %-3.50 °C 
12:45:00-0.20 °C1030.20 hPa77.00 %-4.20 °C 
12:30:00-0.90 °C1030.30 hPa78.00 %-4.60 °C 
12:15:00-2.50 °C1030.40 hPa80.00 %-5.80 °C 
12:00:00-3.70 °C1030.30 hPa81.00 %-6.80 °C 
11:45:00-4.80 °C1030.70 hPa81.00 %-7.90 °C 
11:30:00-5.20 °C1030.80 hPa83.00 %-7.90 °C 
11:15:00-6.20 °C1030.50 hPa85.00 %-8.60 °C 
11:00:00-7.30 °C1030.40 hPa85.00 %-9.60 °C 
10:45:00-8.10 °C1030.30 hPa86.00 %-10.30 °C 
10:30:00-9.00 °C1030.50 hPa87.00 %-11.00 °C 
10:15:00-10.40 °C1030.20 hPa88.00 %-12.20 °C 
10:00:00-11.80 °C1030.20 hPa89.00 %-13.40 °C 
09:45:00-13.40 °C1030.30 hPa88.00 %-15.20 °C 
09:30:00-14.10 °C1030.20 hPa87.00 %-16.00 °C 
09:15:00-14.70 °C1030.10 hPa87.00 %-16.60 °C 
09:00:00-14.90 °C1030.30 hPa86.00 %-16.90 °C 
08:45:00-14.70 °C1030.00 hPa87.00 %-16.60 °C 
08:30:00-14.70 °C1030.10 hPa86.00 %-16.80 °C 
08:15:00-14.10 °C1030.10 hPa87.00 %-16.00 °C 
08:00:00-14.50 °C1029.70 hPa87.00 %-16.40 °C 
07:45:00-14.50 °C1029.80 hPa88.00 %-16.20 °C 
07:30:00-15.10 °C1029.60 hPa87.00 %-17.00 °C 
07:15:00-15.10 °C1029.70 hPa87.00 %-17.00 °C 
07:00:00-15.30 °C1029.90 hPa86.00 %-17.30 °C 
06:45:00-15.20 °C1029.70 hPa86.00 %-17.20 °C 
06:30:00-15.20 °C1029.70 hPa87.00 %-17.10 °C 
06:15:00-15.40 °C1029.60 hPa86.00 %-17.40 °C 
06:00:00-15.20 °C1029.70 hPa86.00 %-17.20 °C 
05:45:00-15.10 °C1029.70 hPa86.00 %-17.10 °C 
05:30:00-14.70 °C1030.00 hPa86.00 %-16.80 °C 
05:15:00-14.10 °C1030.00 hPa88.00 %-15.80 °C 
05:00:00-15.00 °C1029.90 hPa87.00 %-16.90 °C 
04:45:00-15.30 °C1030.10 hPa86.00 %-17.30 °C 
04:30:00-15.10 °C1030.10 hPa86.00 %-17.10 °C 
04:15:00-14.80 °C1030.30 hPa87.00 %-16.70 °C 
04:00:00-15.10 °C1030.40 hPa86.00 %-17.10 °C 
03:45:00-15.00 °C1030.30 hPa86.00 %-17.00 °C 
03:30:00-15.10 °C1030.30 hPa86.00 %-17.10 °C 
03:15:00-15.10 °C1030.50 hPa86.00 %-17.10 °C 
03:00:00-15.10 °C1030.20 hPa86.00 %-17.10 °C 
02:45:00-15.10 °C1030.40 hPa86.00 %-17.10 °C 
02:30:00-14.60 °C1030.50 hPa86.00 %-16.70 °C 
02:15:00-14.10 °C1030.30 hPa87.00 %-16.00 °C 
02:00:00-14.70 °C1030.30 hPa87.00 %-16.60 °C 
01:45:00-15.30 °C1030.30 hPa86.00 %-17.30 °C 
01:30:00-15.20 °C1030.20 hPa86.00 %-17.20 °C 
01:15:00-15.10 °C1030.20 hPa86.00 %-17.10 °C 
01:00:00-14.50 °C1030.30 hPa86.00 %-16.60 °C 
00:45:00-14.40 °C1030.20 hPa87.00 %-16.30 °C 
00:30:00-14.70 °C1030.20 hPa87.00 %-16.60 °C 
00:15:00-14.50 °C1030.30 hPa86.00 %-16.60 °C 
00:00:00-13.90 °C1030.30 hPa87.00 %-15.80 °C 

Permanenter Link zu dieser Seite: Wetter im Erzgebirge am 19.01.2017
Performance-Info: Die Erstellung der Seite / Statistik(en) / Tabelle(n) erforderte 5 Datenbankserver-Abfrage(n) und dauerte 100 Millisekunden. (Dieser Messwert ist von der Gesamt-Auslastung des Servers abhängig.)
Erzgebirge - Wetter | Erzgebirge - Wetter (Mobilgeräte) | Komplette Klimadatenbank